STARLINK-11495 [DTC] (62275 NORAD) Tracking and Keplerian Element Data

This shows tracking and keplerian element data for the satellite.

Feedback or suggestion? Click here.




ElementValue
Catalog62275
NameSTARLINK-11495 [DTC]
Epoch Orbit1029
Epoch Day35.0773364
Epoch Year2025
RAAN299.9641
Inclination42.9988
Eccentricity0.0001723
Argument of Perigee266.3532
Mean Anonmoly93.7138
Mean Motion15.70827804
Decay Rate1.02E-05
L11 62275U 24237J 25035.07733640 .00001020 00000+0 11452-4 0 9994
L22 62275 42.9988 299.9641 0001723 266.3532 93.7138 15.70827804 10299



Live tracking and technical data element details for STARLINK-11495 [DTC] (NORAD 62275). STARLINK-11495 [DTC] can be tracked NOW for your location showing map with azimuth and elevation plus other details from your city location.







IsCatalogInMostPopularTable: catalog: 62275, numindb: 11
Update: records affected: 1



GetName: 62275 STARLINK-11495 [DTC]

Hit Count: updated at: Sat, 24 May 2025 17:18:19 GMT